Location: Home
(42.5358°N, 72.7383°W)
Time: 01:12:25
(UTC-05:00)

NOAA 19 - Visible Passes

Search period start: 28 January 2022 00:00
Search period end: 07 February 2022 00:00
Orbit: 841 x 860 km, 99.2° (Epoch: 27 January)

Date Brightness Start Highest point End Pass type
(mag) Time Alt. Az. Time Alt. Az. Time Alt. Az.
28 Jan 8.1 06:28:53 10° NE 06:32:42 19° E 06:36:29 10° SE visible
28 Jan 5.7 17:55:09 10° SE 18:00:15 39° ENE 18:05:22 10° N visible
28 Jan 7.0 19:36:08 10° SSW 19:40:57 30° W 19:45:47 10° NW visible
29 Jan 8.3 06:17:45 10° ENE 06:20:43 15° E 06:23:41 10° ESE visible
29 Jan 5.9 17:43:43 10° SE 17:48:31 31° ENE 17:53:21 10° N visible
29 Jan 6.6 19:23:55 10° SSW 19:29:02 38° W 19:34:12 10° NNW visible
30 Jan 8.6 06:07:15 10° ENE 06:08:44 11° E 06:10:12 10° ESE visible
30 Jan 6.2 17:32:22 10° ESE 17:36:49 25° ENE 17:41:17 10° N visible
30 Jan 6.2 19:11:49 10° S 19:17:09 48° W 19:22:32 10° NNW visible
31 Jan 5.7 18:59:49 10° S 19:05:17 61° WSW 19:10:49 10° NNW visible
01 Feb 5.3 18:47:54 10° S 18:53:27 78° WSW 18:59:02 10° NNW visible
02 Feb 5.1 18:36:05 10° SSE 18:41:39 85° ENE 18:47:13 10° NNW visible
02 Feb 8.1 20:20:28 10° WSW 20:22:57 13° W 20:25:25 10° WNW visible
03 Feb 5.2 18:24:21 10° SSE 18:29:51 68° ENE 18:35:22 10° N visible
03 Feb 7.9 20:07:29 10° SW 20:10:58 17° W 20:14:29 10° NW visible
04 Feb 5.3 18:12:41 10° SE 18:18:04 54° ENE 18:23:28 10° N visible
04 Feb 7.5 19:54:51 10° SW 19:59:00 22° W 20:03:12 10° NW visible
05 Feb 5.6 18:01:07 10° SE 18:06:18 43° ENE 18:11:31 10° N visible
05 Feb 7.2 19:42:25 10° SSW 19:47:04 27° W 19:51:46 10° NW visible
06 Feb 8.2 06:23:32 10° NE 06:26:52 16° E 06:30:11 10° SE visible
06 Feb 5.8 17:49:38 10° SE 17:54:35 34° ENE 17:59:32 10° N visible
06 Feb 6.8 19:30:10 10° SSW 19:35:10 34° W 19:40:12 10° NNW visible
